Flag for Germany Weather past 2 weeks in Alsdorf, North Rhine-Westphalia, Germany

54 °F

More clouds than sun.

Feels Like: 50 °F
Forecast: 38 / 54 °F
Wind: 12 mph from Northeast

Location: Maastricht Airport Zuid Limburg

Current Time: Oct 10, 2015 at 4:44:08 PM

Latest Report: Oct 10, 2015 at 3:55 PM

Visibility: 5 mi

Pressure: 30.07 "Hg

Humidity: 77%

Dew point: 46 °F

Location of AlsdorfLocation

Historic Weather in Alsdorf — Graph


Alsdorf temperature yesterday

Maximum temperature yesterday: 59 °F (at 3:55 PM)
Minimum temperature yesterday: 45 °F (at 8:25 AM)
Average temperature yesterday: 52 °F

Past Weeks' High & Low Weather Summary

High66 °F (Oct 3, 3:25 PM)100% (Sep 26, 2:55 AM)30.63 "Hg (Sep 26, 2:55 AM)
Low39 °F (Oct 2, 5:25 AM)44% (Oct 1, 12:25 PM)29.56 "Hg (Oct 6, 3:55 AM)
Average54 °F82%30.17 "Hg
* Reported Sep 25 3:25 PM — Oct 10 3:25 PM, Alsdorf, Weather by CustomWeather, © 2015

Note: Actual official high and low records may vary slightly from our data, if they occured in-between our weather recording intervals... More about our weather records


Alsdorf weather history for previous 24 hours

Time TempWeatherWind HumidityBarometerVisibility
3:25 PM
Sat, Oct 10
54 °FMostly cloudy.10 mph82%30.07 "Hg4 mi
2:55 PM54 °FCloudy.12 mph82%30.07 "Hg4 mi
2:25 PM54 °FMostly cloudy.9 mph82%30.07 "Hg4 mi
1:55 PM54 °FOvercast.12 mph82%30.09 "Hg4 mi
1:25 PM54 °FOvercast.12 mph88%30.09 "Hg4 mi
12:55 PM54 °FOvercast.12 mph82%30.09 "Hg4 mi
12:25 PM54 °FOvercast.12 mph88%30.09 "Hg4 mi
11:55 AM54 °FMostly cloudy.12 mph88%30.09 "Hg4 mi
11:25 AM54 °FMostly cloudy.10 mph88%30.12 "Hg4 mi
10:55 AM54 °FLow clouds.9 mph88%30.12 "Hg4 mi
10:25 AM54 °FMostly cloudy.9 mph88%30.12 "Hg4 mi
9:55 AM52 °FMostly cloudy.9 mph94%30.12 "Hg4 mi
9:25 AM52 °FMostly cloudy.10 mph94%30.12 "Hg4 mi
8:55 AM52 °FMore clouds than sun.12 mph94%30.12 "Hg4 mi
8:25 AM52 °FFog.8 mph94%30.12 "Hg3 mi
7:55 AM52 °FFog.8 mph94%30.12 "Hg2 mi
7:25 AM52 °FFog.8 mph100%30.09 "Hg2 mi
6:55 AM52 °FFog.8 mph100%30.12 "Hg2 mi
6:25 AM52 °FFog.8 mph100%30.12 "Hg2 mi
5:55 AM52 °FFog.8 mph100%30.12 "Hg2 mi
5:25 AM54 °FFog.9 mph94%30.12 "Hg2 mi
4:55 AM54 °FFog.8 mph94%30.12 "Hg2 mi
4:25 AM52 °FFog.9 mph100%30.12 "Hg1 mi
3:55 AM54 °FFog.7 mph94%30.12 "Hg2 mi
3:25 AM54 °FFog.8 mph94%30.12 "Hg2 mi
2:55 AM54 °FFog.8 mph94%30.12 "Hg2 mi
2:25 AM54 °FFog.7 mph94%30.12 "Hg3 mi
1:55 AM54 °FMostly cloudy.7 mph94%30.12 "Hg4 mi
1:25 AM54 °FPartly cloudy.7 mph94%30.12 "Hg4 mi
12:55 AM54 °FPartly cloudy.6 mph88%30.15 "Hg6 mi
12:25 AM54 °FMostly cloudy.7 mph88%30.15 "HgN/A
11:55 PM
Fri, Oct 9
54 °FPartly cloudy.7 mph82%30.15 "HgN/A
10:55 PM54 °FOvercast.5 mph88%30.15 "HgN/A
10:25 PM54 °FMostly cloudy.6 mph88%30.15 "Hg6 mi
9:55 PM54 °FPartly cloudy.5 mph88%30.15 "Hg6 mi
9:25 PM54 °FPassing clouds.5 mph82%30.15 "Hg6 mi
8:55 PM54 °FMostly cloudy.3 mph82%30.15 "HgN/A
8:25 PM54 °FOvercast.6 mph82%30.15 "HgN/A
7:55 PM52 °FPartly sunny.5 mph88%30.15 "Hg6 mi
7:25 PM54 °FPassing clouds.5 mph82%30.15 "HgN/A
6:55 PM54 °FOvercast.6 mph88%30.15 "HgN/A
6:25 PM55 °FPartly sunny.8 mph82%30.15 "HgN/A
5:55 PM55 °FPartly sunny.5 mph82%30.15 "HgN/A
5:25 PM57 °FOvercast.6 mph77%30.15 "HgN/A
4:55 PM57 °FPassing clouds.6 mph77%30.15 "HgN/A
4:25 PM59 °FPartly sunny.6 mph72%30.15 "HgN/A
Weather by CustomWeather, © 2015

See weather overviewHow to use our weather pages